Location: Unspecified
(0.0000°N, 0.0000°E)
Time: 05:56:43
(UTC+00:00)

DX 1 - Pass Details

Date: 11 July 2020
Orbit: 619 x 630 km, 98.5° (Epoch: 13 August)

Event Time Altitude Azimuth Distance (km) Brightness Sun altitude
Rises 05:18:05 0° 163° (SSE) 2,906 ? -11.0°
Reaches altitude 10° 05:20:17 10° 160° (SSE) 1,995 ? -10.5°
Maximum altitude 05:24:36 67° 78° (ENE) 676 ? -9.5°
Drops below altitude 10° 05:28:52 10° 355° (N) 1,980 ? -8.5°
Sets 05:31:03 0° 353° (N) 2,881 ? -8.0°
